Simultaneous Nadir Overpasses (SNOs) Predictions

Prediction of SNOs between GOES-15 and METOP-C Satellite Orbit:

Table of predicted SNOs for the next 14.0 days since TLE Epoch: 3/14/2022
Index Date Time (GOES-15) GOES-15 Lat,Lon METOP-C Lat,Lon Distance(km) Time Diff (sec)
1 03/15/2022 06:14:34 0.02,-127.96 -0.68,-131.01 347.85 80
2 03/16/2022 05:56:35 0.01,-127.99 0.47,-126.02 224.86 80
3 03/17/2022 18:12:47 -0.02,-128.05 0.58,-130.58 288.91 80
4 03/18/2022 17:54:49 -0.01,-128.08 -0.58,-125.60 283.68 80
5 03/20/2022 06:11:08 0.02,-128.12 -0.47,-130.19 236.47 80
6 03/21/2022 05:53:10 0.01,-128.14 0.70,-125.20 335.63 80
7 03/22/2022 18:09:22 -0.02,-128.19 0.36,-129.76 179.60 80
8 03/23/2022 17:51:24 -0.02,-128.21 -0.80,-124.78 391.94 80
9 03/25/2022 06:07:43 0.03,-128.23 -0.23,-129.37 129.77 80
10 03/26/2022 05:49:43 0.03,-128.25 0.88,-124.38 441.28 80
11 03/27/2022 18:05:57 -0.04,-128.29 0.11,-128.95 75.18 80
